Regional Weather Roundup
Issued by NWS

Home | Current Version | Previous Version | Text Only | Print | Product List | Glossary On
Versions: 1 2 3 4 5 6 7 8 9 10 11 12 13 14 15 16 17 18 19 20 21 22 23 24 25 26 27 28 29 30 31 32 33 34 35 36 37 38 39 40 41 42 43 44 45 46 47 48 49 50
000
ASUS42 KKEY 011010
RWRKEY

FLORIDA REGIONAL WEATHER ROUNDUP FOR THE FLORIDA KEYS
NATIONAL WEATHER SERVICE KEY WEST FLORIDA
500 AM EST SUN MAR 01 2015

...SOUTH FLORIDA AND THE KEYS...

CITY           SKY/WX    TMP DP  RH WIND       PRES   REMARKS
FORT MYERS     CLOUDY    69  68  96 E6        30.26S
SW REGIONAL AP CLOUDY    68  67  96 E7        30.26S
NAPLES         CLOUDY    70  69  97 NE9       30.25S
MIAMI          PTCLDY    74  67  78 E10       30.25S
WEST KENDALL   MOCLDY    73  68  84 E10       30.25R
HOMESTEAD      PTCLDY    74  69  82 NE15      30.24R
MARATHON       CLEAR     75  71  87 E10G17    30.21S
BOCA CHICA NAS CLEAR     75  70  84 E13       30.21S
KEY WEST INTL  CLEAR     74  71  91 E12       30.22R

...INTERNATIONAL WEATHER...

CITY           SKY/WX    TMP DP  RH WIND       PRES   REMARKS
NASSAU BAHAMAS MOCLDY    75  70  83 E10       30.23S
CANCUN MEXICO  PTCLDY    75  73  94 NE6       30.11S
COZUMEL MEXICO CLEAR     72  70  94 E3        30.10

ADJACENT COASTAL WATERS...

STATION/POSITION TIME  SKY/WX   TEMP    WIND        PRES    WAVE
                                AIR SEA DIR/SP/G            HT/PER
                 (UTC)          (F)     (DEG/KT/KT) (MB)    (FT/S)
PULASKI SHOAL LI 0900            71      80/ 14/ 16 1022.6F
SAND KEY         0950            74      80/ 15/ 17 1022.8S
SOMBRERO KEY     1000            74      70/ 17/ 18 1023.5R
LONG KEY         1000            76 77   90/ 18/ 20 1024.1R
MOLASSES REEF    1000            75 76   60/ 17/ 19 1023.2R
FOWEY ROCKS      NOT AVBL
Buoy 42080       NOT AVBL

$$


USA.gov is the U.S. government's official web portal to all federal, state and local government web resources and services.